This is the latest recevied weather packets stored in our database for station/object AA4OM-2. If no packets are shown the sender has not sent any weather packets the latest 10 day(s).
| Time | Temp. | Humidity | Pressure | Rain* | Wind** | Luminosity | Snow |
|---|---|---|---|---|---|---|---|
| 1777290820 | 14.44° C | 96% | 1013.6 hPa | 0 mm | - | 27 W/m² | - |
| 1777290516 | 14.44° C | 96% | 1013.8 hPa | 0 mm | - | 25 W/m² | - |
| 1777290212 | 13.89° C | 96% | 1013.6 hPa | 0 mm | - | 22 W/m² | - |
| 1777289909 | 13.89° C | 97% | 1013.7 hPa | 0 mm | - | 21 W/m² | - |
| 1777289606 | 13.89° C | 97% | 1013.8 hPa | 0 mm | - | 17 W/m² | - |
| 1777289301 | 13.89° C | 97% | 1013.8 hPa | 0 mm | - | 11 W/m² | - |
| 1777288997 | 13.89° C | 97% | 1013.7 hPa | 0 mm | - | 10 W/m² | - |
| 1777288695 | 13.89° C | 97% | 1013.4 hPa | 0 mm | - | 7 W/m² | - |
| 1777288392 | 13.89° C | 97% | 1013.3 hPa | 0 mm | - | 4 W/m² | - |
| 1777288088 | 13.89° C | 97% | 1013.2 hPa | 0 mm | - | 2 W/m² | - |
| 1777287785 | 13.89° C | 97% | 1013.6 hPa | 0 mm | - | 1 W/m² | - |
| 1777287481 | 13.89° C | 97% | 1013.6 hPa | 0 mm | - | 1 W/m² | - |
| 1777287176 | 13.89° C | 97% | 1013.6 hPa | 0 mm | - | 0 W/m² | - |
| 1777286874 | 13.89° C | 97% | 1013.1 hPa | 0 mm | - | 0 W/m² | - |
| 1777286571 | 13.89° C | 97% | 1013.3 hPa | 0 mm | - | 0 W/m² | - |
| 1777286268 | 13.89° C | 97% | 1013.1 hPa | 0 mm | - | 0 W/m² | - |
| 1777285965 | 13.89° C | 97% | 1013.2 hPa | 0 mm | - | 0 W/m² | - |
| 1777285662 | 13.89° C | 97% | 1013.2 hPa | 0 mm | - | 0 W/m² | - |
| 1777285360 | 13.89° C | 97% | 1012.8 hPa | 0 mm | - | 0 W/m² | - |
| 1777285057 | 13.89° C | 97% | 1013 hPa | 0 mm | - | 0 W/m² | - |
| 1777284754 | 13.89° C | 97% | 1012.9 hPa | 0 mm | - | 0 W/m² | - |
| 1777284451 | 13.89° C | 97% | 1013 hPa | 0 mm | - | 0 W/m² | - |
| 1777284148 | 13.89° C | 97% | 1013 hPa | 0 mm | - | 0 W/m² | - |
| 1777283845 | 13.89° C | 97% | 1012.9 hPa | 0 mm | - | 0 W/m² | - |
| 1777283542 | 13.89° C | 97% | 1012.6 hPa | 0 mm | - | 0 W/m² | - |
* Rain latest hour (hover to see other rain measurements)
** Current wind speed in m/s (hover to see current wind gust speed)